Location: Asheville, NC
(35.6000°N, 82.5500°W)
Time: 13:24:41
(UTC-05:00)

KKS-1 - Pass Details

Date: 16 February 2018
Orbit: 638 x 650 km, 98.3° (Epoch: 22 February)

Event Time Altitude Azimuth Distance (km) Brightness Sun altitude
Rises 04:21:22 0° 133° (SE) 2,931 ? -36.0°
Reaches altitude 10° 04:23:57 10° 118° (ESE) 2,028 ? -35.5°
Maximum altitude 04:27:19 22° 68° (ENE) 1,415 ? -34.8°
Enters shadow 04:28:20 20° 49° (NE) 1,485 ? -34.6°
